Location: DARK SKY Beskydy - Park tmavé oblohy, www.darkskybeskydy.cz
(49.4926°N, 18.5016°E)
Time: 03:45:32
(UTC+01:00)

N. Korean satellite - Pass Details

Date: 12 December 2022
Orbit: 407 x 442 km, 97.3° (Epoch: 05 February)

Event Time Altitude Azimuth Distance (km) Brightness Sun altitude
Rises 05:26:35 0° 10° (N) 2,494 10.1 -19.4°
Reaches altitude 10° 05:28:40 10° 7° (N) 1,607 9.1 -19.0°
Maximum altitude 05:32:05 62° 286° (WNW) 511 6.3 -18.5°
Drops below altitude 10° 05:35:24 10° 205° (SSW) 1,562 9.0 -18.0°
Sets 05:37:24 0° 202° (SSW) 2,416 10.0 -17.7°
